Location: Albany
(35.0170°S, 117.8920°E)
Time: 20:40:37
(UTC+08:00)

A-11 Canister half - Pass Details

Date: 24 January 2021
Orbit: 1525 x 1684 km, 47.3° (Epoch: 03 March)

Event Time Altitude Azimuth Distance (km) Brightness Sun altitude
Rises 10:01:27 0° 238° (WSW) 4,833 11.3 55.5°
Reaches altitude 10° 10:04:42 10° 242° (WSW) 3,821 10.9 56.1°
Maximum altitude 10:13:55 52° 314° (NW) 1,885 10.0 57.9°
Drops below altitude 10° 10:22:51 10° 27° (NNE) 3,697 11.5 59.6°
Sets 10:25:57 0° 32° (NNE) 4,666 11.9 60.2°
